Location: Unspecified
(0.0000°N, 0.0000°E)
Time: 22:58:39
(UTC+00:00)

S-56A Canister/Altair - All Passes

Search period start: 23 January 2017 00:00
Search period end: 02 February 2017 00:00
Orbit: 639 x 2495 km, 38.9° (Epoch: 22 January)

Date Brightness Start Highest point End Pass type
(mag) Time Alt. Az. Time Alt. Az. Time Alt. Az.
23 Jan - 01:35:04 10° W 01:46:49 30° NW 01:59:04 10° NNE visible
23 Jan - 10:19:25 10° NNW 10:25:45 37° NE 10:30:26 10° ESE daylight
23 Jan - 12:25:22 10° W 12:29:26 22° SW 12:33:00 10° S daylight
23 Jan - 20:52:05 10° S 21:00:15 27° SE 21:10:42 10° E visible
23 Jan - 22:54:15 10° SW 23:05:59 88° SE 23:21:10 10° NE visible
24 Jan - 01:01:28 10° W 01:13:22 34° NW 01:26:19 10° NNE night (unlit)
24 Jan - 03:22:14 10° NNW 03:23:04 10° NNW 03:23:54 10° NNW visible
24 Jan - 09:46:43 10° NNW 09:53:15 32° NE 09:58:04 10° E daylight
24 Jan - 11:52:12 10° WNW 11:57:12 30° SW 12:01:17 10° SSE daylight
24 Jan - 20:20:24 10° S 20:27:22 22° SE 20:36:08 10° E visible
24 Jan - 22:21:45 10° SW 22:32:49 79° SE 22:47:42 10° NE visible
25 Jan - 00:28:05 10° W 00:39:56 38° NW 00:53:26 10° NNE night (unlit)
25 Jan - 02:44:25 10° NW 02:49:23 12° NNW 02:54:19 10° N visible
25 Jan - 09:13:57 10° NNW 09:20:41 28° NNE 09:25:38 10° E daylight
25 Jan - 11:19:05 10° WNW 11:24:58 41° SW 11:29:28 10° SSE daylight
25 Jan - 19:49:02 10° S 19:54:33 17° SE 20:01:13 10° E visible
25 Jan - 21:49:24 10° SW 21:59:45 69° SE 22:14:07 10° NE visible
25 Jan - 23:54:55 10° WSW 00:06:32 43° NW 00:20:26 10° NNE visible
26 Jan - 02:08:58 10° NW 02:15:44 14° NNW 02:22:32 10° N visible
26 Jan - 08:41:09 10° NNW 08:48:02 25° NNE 08:53:09 10° E daylight
26 Jan - 10:45:59 10° WNW 10:52:42 54° SW 10:57:35 10° SE daylight
26 Jan - 19:18:21 10° SSE 19:21:46 12° SE 19:25:38 10° ESE visible
26 Jan - 21:17:09 10° SW 21:26:47 60° SE 21:40:25 10° ENE visible
26 Jan - 23:21:55 10° WSW 23:33:11 48° NW 23:47:20 10° NNE visible
27 Jan - 01:34:12 10° WNW 01:42:05 16° NNW 01:50:16 10° N night (unlit)
27 Jan - 08:08:17 10° NNW 08:15:16 23° NNE 08:20:33 10° E daylight
27 Jan - 10:12:53 10° NW 10:20:25 71° SW 10:25:37 10° SE daylight
27 Jan - 20:45:01 10° SSW 20:53:55 51° SE 21:06:38 10° ENE visible
27 Jan - 22:49:05 10° WSW 22:59:54 53° NW 23:14:08 10° NE visible
28 Jan - 00:59:53 10° WNW 01:08:30 18° NNW 01:17:43 10° N night (unlit)
28 Jan - 07:35:23 10° NNW 07:42:26 21° NNE 07:47:51 10° ENE daylight
28 Jan - 09:39:46 10° NW 09:48:03 88° SW 09:53:36 10° SE daylight
28 Jan - 20:13:01 10° SSW 20:21:08 42° SE 20:32:45 10° ENE visible
28 Jan - 22:16:24 10° WSW 22:26:42 60° NW 22:40:52 10° NE visible
29 Jan - 00:25:54 10° WNW 00:34:56 21° NNW 00:44:58 10° NNE night (unlit)
29 Jan - 07:02:27 10° NNW 07:09:30 19° NNE 07:15:03 10° ENE daylight
29 Jan - 09:06:37 10° NW 09:15:36 77° NE 09:21:30 10° SE daylight
29 Jan - 11:16:10 10° WSW 11:19:07 13° SW 11:21:43 10° SSW daylight
29 Jan - 19:41:07 10° SSW 19:48:27 35° SE 19:58:45 10° ENE visible
29 Jan - 21:43:51 10° WSW 21:53:35 67° NW 22:07:31 10° NE visible
29 Jan - 23:52:14 10° WNW 00:01:27 23° NNW 00:12:06 10° NNE night (unlit)
30 Jan - 06:29:30 10° NNW 06:36:28 18° NNE 06:42:05 10° ENE daylight
30 Jan - 08:33:27 10° NW 08:43:04 65° NE 08:49:20 10° ESE daylight
30 Jan - 10:42:00 10° W 10:46:47 19° SW 10:50:39 10° S daylight
30 Jan - 19:09:23 10° S 19:15:50 28° SE 19:24:38 10° E visible
30 Jan - 21:11:25 10° SW 21:20:35 75° NW 21:34:06 10° NE visible
30 Jan - 23:18:49 10° W 23:28:01 25° NNW 23:39:07 10° NNE visible
31 Jan - 05:56:32 10° N 06:03:20 16° NNE 06:08:58 10° ENE daylight
31 Jan - 08:00:15 10° NW 08:10:26 56° NE 08:17:06 10° ESE daylight
31 Jan - 10:08:11 10° W 10:14:27 26° SW 10:19:11 10° S daylight
31 Jan - 18:37:50 10° S 18:43:17 21° SE 18:50:22 10° E visible
31 Jan - 20:39:05 10° SW 20:47:40 85° NW 21:00:39 10° NE visible
31 Jan - 22:45:37 10° W 22:54:40 28° NNW 23:06:03 10° NNE visible
01 Feb - 05:23:35 10° N 05:30:05 15° NNE 05:35:39 10° NE visible
01 Feb - 07:27:02 10° NW 07:37:41 49° NE 07:44:47 10° ESE daylight
01 Feb - 09:34:29 10° WNW 09:42:06 34° SW 09:47:32 10° SSE daylight
01 Feb - 18:06:37 10° S 18:10:46 16° SE 18:15:49 10° E daylight
01 Feb - 20:06:52 10° SW 20:14:52 84° SE 20:27:09 10° NE visible
01 Feb - 22:12:36 10° W 22:21:25 31° NNW 22:32:56 10° NNE visible
